Home > Weather > Amsterdam > Past weeks

Flag for Netherlands Past Weather in Amsterdam, Netherlands — Yesterday and Last 2 Weeks

Now
59 °F

Light rain. Passing clouds.


Feels Like: 57 °F
Forecast: 58 / 65 °F
Wind: 13 mph from South

Location: Amsterdam Schiphol Airport

Current Time: Jun 29, 2016 at 10:06:08 PM

Latest Report: Jun 29, 2016 at 9:25 PM


Visibility: N/A

Pressure: 29.83 "Hg

Humidity: 82%

Dew Point: 54 °F

Location of AmsterdamLocation

Past Weather in Amsterdam — Graph

°F

Amsterdam Temperature Yesterday

Maximum temperature yesterday: 70 °F (at 4:55 PM)
Minimum temperature yesterday: 50 °F (at 4:25 AM)
Average temperature yesterday: 61 °F

High & Low Weather Summary for the Past Weeks

 TemperatureHumidityPressure
High81 °F (Jun 23, 4:55 PM)100% (Jun 15, 2:55 AM)30.24 "Hg (Jun 15, 2:55 AM)
Low50 °F (Jun 28, 4:25 AM)56% (Jun 16, 11:25 AM)29.45 "Hg (Jun 14, 8:25 PM)
Average61 °F83%29.93 "Hg
* Reported Jun 14 8:25 PM — Jun 29 8:55 PM, Amsterdam, Weather by CustomWeather, © 2016

Note: Actual official high and low records may vary slightly from our data, if they occured in-between our weather recording intervals... More about our weather records

Advertising

Amsterdam Weather History for the Previous 24 Hours

Scroll right to see more
 ConditionsComfort  
Time TempWeatherWind HumidityBarometerVisibility
8:55 PM
Wed, Jun 29
59 °FLight rain. Passing clouds.15 mph82%29.83 "HgN/A
8:25 PM59 °FLight rain. Passing clouds.15 mph82%29.83 "HgN/A
7:55 PM61 °FPassing clouds.15 mph88%29.83 "HgN/A
7:25 PM61 °FScattered clouds.15 mph83%29.83 "HgN/A
6:55 PM63 °FLight rain. Passing clouds.17 mph77%29.83 "HgN/A
6:25 PM64 °FPassing clouds.20 mph73%29.83 "HgN/A
5:55 PM66 °FPassing clouds.16 mph68%29.83 "HgN/A
5:25 PM68 °FPassing clouds.16 mph64%29.83 "HgN/A
4:55 PM66 °FPassing clouds.16 mph60%29.83 "HgN/A
4:25 PM66 °FPassing clouds.14 mph64%29.83 "HgN/A
3:55 PM68 °FPassing clouds.16 mph56%29.83 "HgN/A
3:25 PM66 °FPassing clouds.22 mph56%29.86 "HgN/A
2:55 PM66 °FPassing clouds.20 mph56%29.86 "HgN/A
2:25 PM64 °FPassing clouds.20 mph60%29.86 "HgN/A
1:55 PM64 °FPassing clouds.17 mph64%29.86 "HgN/A
1:25 PM64 °FScattered clouds.18 mph64%29.86 "HgN/A
12:55 PM64 °FLight rain. Scattered clouds.21 mph68%29.86 "HgN/A
12:25 PM63 °FLight rain. Scattered clouds.21 mph73%29.83 "HgN/A
11:55 AM63 °FLight rain. Scattered clouds.15 mph77%29.83 "HgN/A
11:25 AM61 °FScattered clouds.18 mph77%29.83 "HgN/A
10:55 AM63 °FScattered clouds.16 mph73%29.83 "HgN/A
10:25 AM63 °FScattered clouds.18 mph77%29.80 "HgN/A
9:55 AM61 °FScattered clouds.15 mph83%29.80 "HgN/A
9:25 AM61 °FScattered clouds.16 mph77%29.80 "HgN/A
8:55 AM61 °FScattered clouds.15 mph88%29.80 "HgN/A
8:25 AM59 °FLight rain. Scattered clouds.15 mph88%29.77 "HgN/A
7:55 AM59 °FScattered clouds.12 mph94%29.77 "HgN/A
7:25 AM59 °FScattered clouds.12 mph94%29.77 "HgN/A
6:55 AM57 °FScattered clouds.12 mph94%29.74 "HgN/A
6:25 AM57 °FLight rain. Broken clouds.14 mph94%29.74 "HgN/A
5:55 AM57 °FSprinkles. Partly cloudy.13 mph94%29.74 "HgN/A
5:25 AM57 °FLight rain. Passing clouds.12 mph94%29.74 "HgN/A
4:55 AM57 °FPartly cloudy.14 mph94%29.74 "HgN/A
4:25 AM57 °FSprinkles. Partly cloudy.14 mph94%29.74 "HgN/A
3:55 AM57 °FScattered showers. Passing clouds.10 mph94%29.77 "Hg6 mi
3:25 AM55 °FPassing clouds.8 mph100%29.77 "HgN/A
2:55 AM57 °FPartly cloudy.7 mph94%29.77 "Hg6 mi
2:25 AM55 °FLight rain. Passing clouds.6 mph100%29.77 "HgN/A
1:55 AM55 °FPassing clouds.3 mph100%29.80 "HgN/A
1:25 AM55 °FLight rain. Passing clouds.5 mph94%29.80 "HgN/A
12:55 AM55 °FLight rain. Passing clouds.7 mph94%29.83 "HgN/A
12:25 AM55 °FLight rain. Passing clouds.7 mph94%29.83 "HgN/A
11:55 PM
Tue, Jun 28
57 °FRain. Passing clouds.13 mph88%29.83 "Hg5 mi
11:25 PM59 °FLight rain. Passing clouds.14 mph88%29.83 "Hg6 mi
10:55 PM61 °FClear.8 mph83%29.83 "Hg6 mi
10:25 PM61 °FPassing clouds.7 mph88%29.83 "HgN/A
Weather by CustomWeather, © 2016

See weather overviewHow to use our weather pages